Tracking 17154 objects as of 2-August-2015
HD Live streaming from Space Station

UNHA 3 R/B

Track UNHA 3 R/B now!
10-day predictions
UNHA 3 R/B is classified as:


NORAD ID: 39027
Int'l Code: 2012-072B
Perigee: 490.0 km
Apogee: 579.3 km
Inclination: 97.3 °
Period: 95.2 minutes
Semi major axis: 6905 km
RCS: 1.274 m2 (large)
Launch date: December 12, 2012
Source: North Korea (NKOR)

Note: This is a ROCKET BODY
Your satellite tracking list
Your tracking list is empty





NASA's NSSDC Master Catalog

Two Line Element Set (TLE):
1 39027U 12072B   15213.65257974  .00001791  00000-0  10038-3 0  9993
2 39027 097.2901 238.7184 0064666 098.1051 262.7523 15.12854787145247

Source of the keplerian elements: AFSPC

N2YO: 339